Gulfport, MS

1:50 AM CDT on June 28, 2017 (GMT -0500)
Gulfport-Biloxi Regional

Weather History for KGPT - May, 2013

Change the Weather History Date:

Monday, May 27, 2013

  Actual Average Record
Temperature  
Mean Temperature 81 °F -  
Max Temperature 84 °F 86 °F 98 °F (1953)
Min Temperature 78 °F 69 °F 51 °F (1961)
Cooling Degree Days 16    
Growing Degree Days 31 (Base 50)    
Moisture  
Dew Point 66 °F    
Average Humidity 61    
Maximum Humidity 78    
Minimum Humidity 46    
Precipitation  
Precipitation 0.00 in - - ()
Sea Level Pressure  
Sea Level Pressure 30.10 in    
Wind  
Wind Speed 13 mph (SSE)    
Max Wind Speed 18 mph    
Max Gust Speed 24 mph    
Visibility 10 miles    
Events      
Averages and records for this station are not official NWS values.
T = Trace of Precipitation, MM = Missing Value Source: NWS Daily Summary

Daily Weather History Graph

Daily Weather History Graph

Search for Another Location

Airport or City:

Trip Planner

Search our weather history database for the weather conditions in past years. The results will help you decide how hot, cold, wet, or windy it might be!

Date:

Astronomy

May. 27, 2013 Rise Set
Actual Time 5:56 AM CDT 7:51 PM CDT
Civil Twilight 5:29 AM CDT 8:18 PM CDT
Nautical Twilight 4:56 AM CDT 8:50 PM CDT
Astronomical Twilight 4:21 AM CDT 9:25 PM CDT
Moon 10:35 PM CDT (5/27) 8:30 AM CDT (5/27)
Length of Visible Light 14h 49m
Length of Day
13h 55m
Waning Gibbous, 91% of the Moon is Illuminated
May 27
Waning Gibbous
May 31
Last Quarter
Jun 8
New
Jun 16
First Quarter
Jun 23
Full

Hourly Weather History & Observations

Time (CDT) Temp. Heat Index Dew Point Humidity Pressure Visibility Wind Dir Wind Speed Gust Speed Precip Events Conditions
12:50 AM 78.8 °F - 71.6 °F 78% 30.11 in 10.0 mi SE 12.7 mph - N/A   Mostly Cloudy
12:53 AM 79.0 °F - 71.1 °F 77% 30.11 in 10.0 mi SE 15.0 mph - N/A   Mostly Cloudy
1:27 AM 78.8 °F - 71.6 °F 78% 30.11 in 10.0 mi SSE 11.5 mph - N/A   Scattered Clouds
1:53 AM 79.0 °F - 70.0 °F 74% 30.11 in 9.0 mi SSE 13.8 mph - N/A   Partly Cloudy
2:53 AM 79.0 °F - 70.0 °F 74% 30.10 in 10.0 mi SSE 12.7 mph - N/A   Clear
3:53 AM 79.0 °F - 69.1 °F 72% 30.09 in 10.0 mi SSE 13.8 mph - N/A   Partly Cloudy
4:53 AM 79.0 °F - 69.1 °F 72% 30.09 in 10.0 mi SSE 12.7 mph - N/A   Partly Cloudy
5:53 AM 79.0 °F - 68.0 °F 69% 30.10 in 10.0 mi SSE 6.9 mph - N/A   Scattered Clouds
6:53 AM 80.1 °F 82.1 °F 66.0 °F 62% 30.12 in 10.0 mi South 9.2 mph - N/A   Partly Cloudy
7:53 AM 82.0 °F 84.5 °F 66.9 °F 60% 30.14 in 10.0 mi SE 12.7 mph - N/A   Partly Cloudy
8:53 AM 81.0 °F 82.7 °F 64.9 °F 58% 30.15 in 10.0 mi ESE 10.4 mph - N/A   Clear
9:53 AM 82.9 °F 84.6 °F 64.9 °F 54% 30.14 in 10.0 mi SSE 11.5 mph - N/A   Clear
10:53 AM 82.9 °F 84.4 °F 64.0 °F 53% 30.15 in 10.0 mi SE 13.8 mph - N/A   Clear
11:53 AM 82.9 °F 84.0 °F 63.0 °F 51% 30.15 in 10.0 mi SE 18.4 mph 23.0 mph N/A   Partly Cloudy
12:53 PM 84.0 °F 84.5 °F 62.1 °F 47% 30.14 in 10.0 mi SSE 16.1 mph - N/A   Clear
1:53 PM 84.0 °F 84.4 °F 61.0 °F 46% 30.12 in 9.0 mi SSE 16.1 mph - N/A   Clear
2:53 PM 84.0 °F 84.9 °F 63.0 °F 49% 30.10 in 3.0 mi SSE 18.4 mph - N/A   Haze
2:57 PM 84.2 °F 85.0 °F 62.6 °F 48% 30.10 in 10.0 mi SE 17.3 mph 24.2 mph N/A   Clear
3:53 PM 82.9 °F 84.4 °F 64.0 °F 53% 30.09 in 10.0 mi SSE 15.0 mph - N/A   Clear
4:53 PM 82.9 °F 84.4 °F 64.0 °F 53% 30.09 in 10.0 mi SSE 11.5 mph - N/A   Partly Cloudy
5:53 PM 82.0 °F 83.1 °F 63.0 °F 52% 30.07 in 10.0 mi SSE 12.7 mph - N/A   Unknown
6:53 PM 81.0 °F 82.2 °F 63.0 °F 54% 30.07 in 10.0 mi SE 12.7 mph - N/A   Partly Cloudy
7:53 PM 80.1 °F 81.7 °F 64.0 °F 58% 30.07 in 10.0 mi SSE 8.1 mph - N/A   Scattered Clouds
8:53 PM 79.0 °F - 64.0 °F 60% 30.06 in 10.0 mi SSE 11.5 mph - N/A   Clear
9:53 PM 78.1 °F - 64.9 °F 64% 30.08 in 10.0 mi SSE 9.2 mph - N/A   Clear
10:53 PM 79.0 °F - 64.0 °F 60% 30.08 in 10.0 mi SE 15.0 mph - N/A   Scattered Clouds
11:53 PM 79.0 °F - 63.0 °F 58% 30.08 in 10.0 mi SE 12.7 mph 19.6 mph N/A   Clear